#timestamp,LO_Frequency,Hit,StdDev 
1517468415.3,286047002.6,N
1517468435.1,286047002.0,N
1517468455.9,286047004.0,N
1517468475.7,286047003.4,N
1517468495.6,286047003.1,N
1517468515.4,286047003.6,N
1517468535.2,286047004.1,N
1517468555.1,286047003.2,N
1517468556.0,286047003.2,N
1517468575.8,286047003.8,N
1517468595.7,286047001.6,N
1517468615.5,286047001.7,N
1517468635.3,286047004.4,N
1517468655.2,286047001.4,N
1517468675.9,286047003.9,N
1517468695.7,286047004.1,N
1517468715.6,286047001.4,N
1517468735.4,286047003.9,N
1517468755.3,286047004.3,N
1517468775.1,286047004.0,N
1517468776.0,286047004.0,N
1517468795.8,286047001.4,N
1517468815.7,286047002.6,N
1517468835.5,286047001.9,N
1517468855.3,286047001.4,N
1517468875.2,286047002.6,N
1517468895.0,286047001.5,N
1517468895.9,286047001.5,N
1517468915.8,286047002.0,N
1517468935.6,286047003.8,Y
1517468955.4,286047000.4,P
1517468975.3,286047000.8,N
1517468995.1,286046999.8,N
1517469015.9,286047001.6,N
1517469035.7,286047002.7,N
1517469055.5,286047002.7,N
1517469075.4,286047002.5,N
1517469095.2,286046999.7,N
1517469115.0,286047000.5,N
1517469115.9,286047000.5,N
1517469135.8,286046998.2,N
1517469155.7,286046999.9,N
1517469175.5,286047001.1,N
1517469195.4,286047000.4,N
1517469215.2,286047000.1,N
1517469235.0,286047000.3,N
1517469235.9,286047000.3,N
1517469255.8,286047000.9,N
1517469275.6,286047001.0,N
1517469295.5,286046999.9,N
1517469315.3,286046999.9,N
1517469335.1,286047000.5,N
1517469355.9,286046998.9,N
1517469375.7,286046998.1,N
1517469395.6,286047000.5,N
1517469415.4,286047000.5,N
1517469435.2,286047000.7,N
1517469455.1,286046998.4,N
1517469456.0,286046998.4,N
1517469475.8,286046998.6,N
1517469495.6,286046998.5,N
1517469515.5,286047001.0,N
1517469535.3,286046999.9,N
1517469555.2,286047000.1,N
1517469575.9,286046998.1,N
1517469595.7,286046998.2,N
1517469615.6,286047001.1,N
1517469635.4,286047000.6,N
1517469655.2,286047000.5,N
1517469675.1,286046999.9,N
1517469676.0,286046999.9,N
1517469695.8,286047002.8,N
1517469715.7,286047002.8,N
1517469735.5,286047002.6,N
1517469755.3,286047002.2,N
1517469775.2,286047002.2,N
1517469795.0,286047000.2,N
1517469795.9,286047000.2,N
1517469815.8,286047000.6,N
1517469835.6,286046999.9,N
1517469855.4,286047002.8,N
1517469875.3,286047002.3,N
1517469895.1,286047002.7,N
1517469915.9,286047002.8,N
1517469935.7,286046999.9,N
1517469955.5,286047001.6,N
1517469975.4,286047002.4,N
1517469995.2,286046999.8,N
1517470015.0,286047002.8,N
1517470015.9,286047002.8,N
1517470035.8,286047000.6,N
1517470055.6,286047001.0,N
1517470075.5,286047000.6,N
1517470095.3,286047000.6,N
1517470115.1,286047001.0,N
1517470135.9,286047000.2,N
1517470155.7,286047000.3,N
1517470175.6,286047000.8,N
1517470195.4,286046999.7,N
1517470215.2,286047000.0,N
1517470235.1,286046998.5,N
1517470236.0,286046998.5,N
1517470255.8,286046998.8,N
1517470275.7,286046997.1,N
1517470295.5,286046996.9,N
1517470315.3,286046999.4,N
1517470335.2,286046998.2,N
1517470355.9,286047000.4,N
1517470375.7,286047000.5,N
1517470395.6,286046998.1,N
1517470415.4,286047000.8,N
1517470435.3,286047000.5,N
1517470455.1,286047001.1,N
1517470475.8,286047000.8,N
1517470495.7,286046998.2,N
1517470515.5,286047002.7,N
1517470535.3,286047002.4,N
1517470555.2,286047001.5,N
1517470575.0,286047002.1,N
1517470575.9,286047002.1,N
1517470595.8,286047002.3,N
1517470615.6,286046999.8,N
1517470635.4,286047004.3,N
1517470655.3,286047002.2,N
1517470675.1,286047003.2,N
1517470695.9,286047001.9,N
1517470715.7,286047001.9,N
1517470735.5,286047001.7,N
1517470755.4,286047001.7,N
1517470775.2,286047001.3,N
1517470795.0,286047001.3,N
1517470795.9,286047001.3,N
1517470815.8,286047001.9,N
1517470835.7,286047004.4,N
1517470855.5,286047003.8,N
1517470875.3,286047005.6,Y
1517470895.2,286047004.2,P
1517470915.0,286047003.1,N
1517470915.9,286047003.1,N
1517470935.8,286047004.1,Y
1517470955.6,286047000.2,P
1517470975.4,286047000.2,N
1517470995.3,286046999.8,N
1517471015.1,286046998.2,N
1517471035.8,286047001.0,N
1517471055.7,286046999.5,N
1517471075.5,286046996.9,N
1517471095.4,286046997.0,N
1517471115.2,286046999.0,N
1517471135.0,286046998.2,N
1517471135.9,286046998.2,N
1517471155.8,286046999.1,N
1517471175.6,286046996.6,N
1517471195.5,286046997.6,N
1517471215.3,286046996.7,N
1517471235.1,286046999.2,N
1517471255.9,286046998.5,N
1517471275.7,286046998.2,N
1517471295.5,286046998.3,N
1517471315.9,286046998.7,N
1517471335.7,286047001.2,N
1517471355.6,286047000.1,N
1517471375.4,286047001.0,N
1517471395.2,286047000.3,N
1517471415.1,286047000.6,N
1517471416.0,286047000.6,N
1517471435.8,286047000.8,N
1517471455.6,286047002.6,N
1517471475.5,286047000.3,N
1517471495.3,286047000.0,N
1517471515.2,286046999.9,N
1517471535.9,286047000.1,N
1517471555.7,286046998.1,N
1517471575.6,286047000.3,N
1517471595.4,286047001.0,N
1517471615.3,286046999.3,N
1517471635.1,286046998.4,N
1517471636.0,286046998.4,N
1517471655.8,286046998.3,N
1517471675.7,286046998.9,N
1517471695.5,286046998.8,N
1517471715.3,286046998.7,N
1517471735.2,286046998.7,N
1517471755.0,286046998.2,N
1517471755.9,286046998.2,N
1517471775.8,286046998.8,N
1517471795.6,286046997.0,N
1517471815.4,286046999.1,N
1517471835.3,286046996.8,N
1517471855.1,286046996.6,N
1517471875.9,286046995.1,Y
1517471895.7,286046997.2,P
1517471915.5,286046997.9,N
1517471935.4,286046995.4,P
1517471955.2,286046997.6,N
1517471975.0,286046997.5,N
1517471975.9,286046997.5,N
1517471995.8,286046998.1,N
